Regional Weather Roundup
Issued by NWS

Home | Current Version | Previous Version | Graphics & Text | Print | Product List | Glossary On
Versions: 1 2 3 4 5 6 7 8 9 10 11 12 13 14 15 16 17 18 19 20 21 22 23 24 25 26 27 28 29 30 31 32 33 34 35 36 37 38 39 40 41 42 43 44 45 46 47 48 49 50
000
ASUS45 KBOU 300807
RWRCO

WEATHER ROUNDUP FOR COLORADO
NATIONAL WEATHER SERVICE DENVER/BOULDER CO
200 AM MDT WED JUL 30 2014

NOTE: "FAIR" INDICATES FEW OR NO CLOUDS BELOW 12000 FEET WITH NO
SIGNIFICANT WEATHER AND/OR OBSTRUCTIONS TO VISIBILITY.

COZ001>005-013-030-031-300900-
...NORTHWEST COLORADO...

CITY           SKY/WX    TMP DP  RH WIND       PRES   REMARKS
CRAIG          LGT RAIN  54  32  43 W5        30.28F
HAYDEN         CLOUDY    55  54  94 W5        30.29F
MEEKER         CLOUDY    56  53  90 CALM      30.29F
MOUNT WERNER   NOT AVBL
STEAMBOAT SPGS CLOUDY    55  54  96 CALM      30.31S
WALDEN         CLOUDY    54  50  87 NE6       30.36S
$$

COZ006>008-011-300900-
...WEST CENTRAL VALLEYS...

CITY           SKY/WX    TMP DP  RH WIND       PRES   REMARKS
GRAND JUNCTION MOCLDY    61  58  90 CALM      30.19F
MONTROSE       PTCLDY    60  56  86 E3        30.27F
EAGLE          CLOUDY    57  57 100 E5        30.31F
RIFLE          CLOUDY    60  57  89 W3        30.25F
DELTA          MOCLDY    63  58  86 NE3       30.23F
NUCLA          PTCLDY    61  55  82 CALM      30.28F
$$

COZ017>023-064>068-300900-
...SOUTHWEST COLORADO...

CITY           SKY/WX    TMP DP  RH WIND       PRES   REMARKS
DURANGO        CLOUDY    63  49  60 N3        30.27S
CORTEZ         MOCLDY    62  57  83 CALM      30.24S
PAGOSA SPRINGS CLOUDY    57  50  76 CALM      30.34F THUNDER
TELLURIDE      NOT AVBL
WOLF CREEK PAS NOT AVBL
$$

COZ009-010-012-014-032>034-037-058>063-300900-
...CENTRAL COLORADO...

CITY           SKY/WX    TMP DP  RH WIND       PRES   REMARKS
ASPEN          LGT RAIN  54  52  93 S6        30.36F
BUENA VISTA    MOCLDY    57  51  81 SE5       30.35S
COPPER MTN     HAZE      45  41  87 W10G16    30.61S VSB<1/4
BERTHOUD PASS  LGT RAIN  36  28  75 NW9       30.64S VSB 1/2
COTTONWOOD PAS MOCLDY    54  43  66 W6        30.47S
GUNNISON       MOCLDY    55  48  76 CALM      30.39S
KREMMLING      CLOUDY    55  52  88 CALM      30.35S
LEADVILLE      CLOUDY    48  44  86 N9        30.47F
MONARCH PASS   MOCLDY    41  39  93 W14       30.70F FOG
SALIDA         MOCLDY    56  55  93 CALM      30.40S
SUNLIGHT       CLOUDY    50  43  76 CALM      30.55S
WILKERSON PASS FOG       45  45 100 W3        30.58S VSB 1/4
$$

COZ069>075-300900-
...SAN LUIS VALLEY/SANGRE DE CRISTO MOUNTAINS...

CITY           SKY/WX    TMP DP  RH WIND       PRES   REMARKS
ALAMOSA        MOCLDY    53  51  93 CALM      30.32F
LA VETA PASS   CLOUDY    46  45  93 SW5       30.49S
SAGUACHE       MOCLDY    54  48  82 NW12      30.36S
$$

COZ035-036-038>040-300900-
...NORTHERN COLORADO FRONT RANGE...

CITY           SKY/WX    TMP DP  RH WIND       PRES   REMARKS
DENVER INTL AP LGT RAIN  58  56  93 E10       30.26R
DMNS CITY PARK   N/A     58  57  97 NE3       30.26S
AURORA         LGT RAIN  57  57 100 NE7       30.27S
FRONT RANGE AP LGT RAIN  59  59 100 E9        30.27S
ERIE MUNI ARPT RAIN      59  58  96 CALM      30.26S
BOULDER MUN AP RAIN      57  57 100 CALM      30.27S
CENTENNIAL     LGT RAIN  57  56  96 NE7       30.27S
BROOMFIELD     HVY RAIN  57  57 100 CALM      30.29R
FORT COLLINS   CLOUDY    59  57  94 E5        30.28S
LONGMONT       HVY RAIN  61  59  94 CALM      30.28S
$$

COZ041-046-047-076>085-087-088-300900-
...PIKES PEAK/PALMER DIVIDE AND SOUTHERN FOOTHILLS...

CITY           SKY/WX    TMP DP  RH WIND       PRES   REMARKS
COLO. SPRINGS  CLOUDY    60  56  86 NE5       30.29R
A. F. ACADEMY  MOCLDY    58  58  99 N6        30.30R
ELLICOTT       CLOUDY    58  57  97 NE10      30.26S
FALCON         CLOUDY    57  55  95 NE6       30.32R
FORT CARSON    CLOUDY    61  61 100 N6        30.25S
LIMON          CLOUDY    58  56  93 NE7       30.24S
MONUMENT HILL  RAIN      54  52  94 NE5       30.31S
TRINIDAD       MOCLDY    62  59  90 W5        30.22F
$$

COZ042>045-048>051-090-091-300900-
...NORTHEAST COLORADO...

CITY           SKY/WX    TMP DP  RH WIND       PRES   REMARKS
GREELEY ARPT   CLOUDY    61  55  82 NE6       30.26S
AKRON          CLOUDY    61  60  97 E12       30.24R
BURLINGTON     CLOUDY    61  59  93 N7        30.16F
WRAY             N/A    N/A N/A N/A NE9       30.20F
STERLING       DRIZZLE   64  64 100 NE5       30.22F
HOLYOKE        CLOUDY    63  61  94 E7        30.21F
FORT MORGAN    CLOUDY    60  58  93 NE8       30.24S
$$

COZ086-089-092>099-300900-
...SOUTHEAST COLORADO...

CITY           SKY/WX    TMP DP  RH WIND       PRES   REMARKS
PUEBLO         MOCLDY    64  61  90 NW5       30.19S
LA JUNTA       CLOUDY    64  63  96 N14       30.14R
LAMAR          LGT RAIN  64  62  93 NE12      30.09S
SPRINGFIELD      N/A     62  60  93 W14G21    30.07F
$$


USA.gov is the U.S. government's official web portal to all federal, state and local government web resources and services.